| time (UTC) | temp F | wind direction | speed MPH | gust MPH | rain 1hr in | rain 24hr in | rain mn in | humidity % | barometer mb |
| 20260509023439 | 70 | 169 | 6.0 | 12.0 | 0.00 | 0.24 | 0.25 | 86 | 1006.3 |
| 20260509022412 | 70 | 163 | 6.0 | 12.0 | 0.00 | 0.24 | 0.25 | 86 | 1006.3 |
| 20260509021350 | 70 | 169 | 6.0 | 10.0 | 0.00 | 0.24 | 0.25 | 85 | 1006.0 |
| 20260509020316 | 70 | 140 | 6.0 | 9.0 | 0.00 | 0.24 | 0.25 | 85 | 1006.0 |
| 20260509015250 | 71 | 132 | 3.0 | 5.0 | 0.00 | 0.24 | 0.25 | 84 | 1006.2 |
| 20260509014300 | 71 | 146 | 1.0 | 4.0 | 0.00 | 0.24 | 0.25 | 83 | 1006.5 |
| 20260509013241 | 71 | 121 | 2.0 | 4.0 | 0.00 | 0.24 | 0.25 | 83 | 1006.7 |
| 20260509012214 | 71 | 128 | 3.0 | 8.0 | 0.00 | 0.24 | 0.25 | 83 | 1006.5 |
| 20260509001543 | 73 | 158 | 8.0 | 13.0 | 0.00 | 0.24 | 0.25 | 79 | 1006.0 |
| 20260509000525 | 73 | 157 | 6.0 | 12.0 | 0.00 | 0.24 | 0.25 | 78 | 1006.1 |
| 20260508235511 | 73 | 153 | 6.0 | 12.0 | 0.00 | 0.24 | 0.25 | 78 | 1006.3 |
| 20260508233420 | 73 | 160 | 4.0 | 9.0 | 0.00 | 0.24 | 0.25 | 79 | 1006.5 |
| 20260508231217 | 73 | 168 | 5.0 | 10.0 | 0.00 | 0.24 | 0.25 | 78 | 1006.6 |
| 20260508230238 | 73 | 182 | 7.0 | 11.0 | 0.00 | 0.24 | 0.25 | 77 | 1006.6 |
| 20260508224036 | 74 | 153 | 7.0 | 13.0 | 0.00 | 0.24 | 0.25 | 76 | 1006.6 |
| 20260508223053 | 74 | 188 | 8.0 | 11.0 | 0.00 | 0.24 | 0.25 | 76 | 1006.8 |
| 20260508222059 | 74 | 149 | 6.0 | 14.0 | 0.00 | 0.24 | 0.25 | 75 | 1006.6 |
| 20260508221047 | 74 | 118 | 8.0 | 15.0 | 0.00 | 0.24 | 0.25 | 74 | 1006.7 |
| 20260508220052 | 74 | 152 | 9.0 | 16.0 | 0.00 | 0.24 | 0.25 | 75 | 1006.7 |
| 20260508215024 | 74 | 132 | 10.0 | 16.0 | 0.00 | 0.24 | 0.25 | 73 | 1006.7 |
| 20260508214003 | 75 | 161 | 10.0 | 16.0 | 0.00 | 0.24 | 0.25 | 72 | 1006.8 |
| 20260508213010 | 75 | 129 | 9.0 | 18.0 | 0.00 | 0.24 | 0.25 | 71 | 1006.9 |
| 20260508212031 | 75 | 138 | 10.0 | 18.0 | 0.00 | 0.24 | 0.25 | 69 | 1007.0 |
| 20260508211029 | 76 | 171 | 8.0 | 14.0 | 0.00 | 0.24 | 0.25 | 69 | 1007.2 |
| 20260508204843 | 76 | 147 | 6.0 | 13.0 | 0.00 | 0.24 | 0.25 | 70 | 1007.4 |
| 20260508203844 | 75 | 155 | 7.0 | 13.0 | 0.00 | 0.24 | 0.25 | 70 | 1007.5 |
| 20260508202900 | 75 | 58 | 5.0 | 11.0 | 0.00 | 0.24 | 0.25 | 68 | 1007.9 |
| 20260508201842 | 75 | 169 | 6.0 | 12.0 | 0.00 | 0.24 | 0.25 | 70 | 1008.2 |
| 20260508194629 | 72 | 123 | 5.0 | 9.0 | 0.00 | 0.24 | 0.25 | 73 | 1009.1 |
| 20260508193603 | 70 | 163 | 7.0 | 12.0 | 0.00 | 0.24 | 0.25 | 74 | 1009.4 |
| 20260508191525 | 72 | 148 | 9.0 | 13.0 | 0.00 | 0.24 | 0.25 | 71 | 1009.4 |
| 20260508190459 | 72 | 190 | 8.0 | 15.0 | 0.00 | 0.24 | 0.25 | 72 | 1009.4 |
| 20260508185425 | 72 | 128 | 8.0 | 15.0 | 0.00 | 0.24 | 0.25 | 72 | 1009.4 |
| 20260508184440 | 72 | 153 | 7.0 | 12.0 | 0.00 | 0.24 | 0.25 | 72 | 1009.5 |
| 20260508183422 | 72 | 126 | 5.0 | 12.0 | 0.00 | 0.24 | 0.25 | 70 | 1009.6 |
| 20260508182405 | 73 | 134 | 5.0 | 10.0 | 0.00 | 0.24 | 0.25 | 70 | 1009.7 |
| 20260508181342 | 73 | 157 | 5.0 | 10.0 | 0.00 | 0.24 | 0.25 | 70 | 1009.9 |
| 20260508180327 | 72 | 161 | 4.0 | 11.0 | 0.00 | 0.24 | 0.25 | 70 | 1010.0 |
| 20260508175342 | 71 | 153 | 6.0 | 11.0 | 0.00 | 0.24 | 0.25 | 73 | 1010.1 |
| 20260508174311 | 71 | 150 | 8.0 | 12.0 | 0.00 | 0.24 | 0.25 | 72 | 1010.3 |
| 20260508173243 | 71 | 132 | 8.0 | 12.0 | 0.00 | 0.24 | 0.25 | 72 | 1010.6 |
| 20260508171144 | 71 | 147 | 5.0 | 12.0 | 0.00 | 0.24 | 0.25 | 70 | 1010.9 |
| 20260508170121 | 71 | 165 | 5.0 | 11.0 | 0.00 | 0.24 | 0.25 | 68 | 1010.9 |
| 20260508162856 | 69 | 133 | 6.0 | 10.0 | 0.00 | 0.24 | 0.25 | 72 | 1011.6 |
| 20260508161902 | 69 | 132 | 7.0 | 10.0 | 0.00 | 0.24 | 0.25 | 71 | 1011.8 |
| 20260508160922 | 69 | 189 | 7.0 | 11.0 | 0.00 | 0.24 | 0.25 | 72 | 1011.8 |
| 20260508155931 | 70 | 155 | 7.0 | 13.0 | 0.00 | 0.24 | 0.25 | 73 | 1011.8 |
| 20260508153829 | 69 | 171 | 5.0 | 9.0 | 0.00 | 0.24 | 0.25 | 75 | 1011.9 |
| 20260508151723 | 69 | 120 | 2.0 | 6.0 | 0.00 | 0.24 | 0.25 | 75 | 1012.1 |
| 20260508145559 | 67 | 155 | 3.0 | 6.0 | 0.00 | 0.24 | 0.25 | 77 | 1012.4 |
| 20260508143434 | 65 | 173 | 3.0 | 10.0 | 0.00 | 0.24 | 0.25 | 78 | 1012.5 |
| 20260508142452 | 66 | 152 | 5.0 | 10.0 | 0.00 | 0.24 | 0.25 | 77 | 1012.6 |
| 20260508141514 | 65 | 132 | 6.0 | 10.0 | 0.00 | 0.24 | 0.25 | 81 | 1012.7 |
| 20260508135331 | 63 | 175 | 2.0 | 4.0 | 0.00 | 0.24 | 0.25 | 89 | 1012.7 |
| 20260508134313 | 61 | 164 | 2.0 | 4.0 | 0.00 | 0.24 | 0.25 | 90 | 1012.6 |
| 20260508133301 | 61 | 160 | 2.0 | 4.0 | 0.00 | 0.24 | 0.25 | 90 | 1012.8 |
| 20260508132232 | 60 | 159 | 1.0 | 3.0 | 0.00 | 0.24 | 0.25 | 91 | 1013.0 |
| 20260508131233 | 60 | 163 | 1.0 | 3.0 | 0.00 | 0.24 | 0.25 | 91 | 1012.8 |
| 20260508130207 | 59 | 136 | 0.0 | 1.0 | 0.00 | 0.24 | 0.25 | 91 | 1012.8 |
| 20260508125210 | 59 | 136 | 0.0 | 0.0 | 0.00 | 0.24 | 0.25 | 91 | 1012.7 |
| 20260508124203 | 59 | 194 | 0.0 | 0.0 | 0.00 | 0.24 | 0.25 | 91 | 1012.8 |
| 20260508123136 | 58 | 194 | 0.0 | 10.0 | 0.04 | 0.24 | 0.25 | 91 | 1012.8 |
| 20260508122149 | 58 | 148 | 4.0 | 10.0 | 0.10 | 0.24 | 0.25 | 91 | 1012.5 |
| 20260508121147 | 59 | 202 | 2.0 | 6.0 | 0.13 | 0.23 | 0.23 | 91 | 1013.0 |
| 20260508120201 | 59 | 145 | 0.0 | 2.0 | 0.00 | 0.18 | 0.18 | 91 | 1012.8 |
| 20260508114021 | 59 | 155 | 0.0 | 0.0 | 0.00 | 0.18 | 0.18 | 91 | 1012.7 |
| 20260508112955 | 59 | 162 | 1.0 | 2.0 | 0.00 | 0.18 | 0.18 | 91 | 1013.0 |
| 20260508111931 | 59 | 82 | 0.0 | 3.0 | 0.00 | 0.18 | 0.18 | 91 | 1012.8 |
| 20260508110925 | 59 | 161 | 1.0 | 4.0 | 0.00 | 0.18 | 0.18 | 91 | 1012.6 |
| 20260508105941 | 59 | 160 | 2.0 | 4.0 | 0.00 | 0.18 | 0.18 | 91 | 1012.5 |
| 20260508104942 | 59 | 168 | 0.0 | 1.0 | 0.00 | 0.18 | 0.18 | 91 | 1012.5 |
| 20260508103923 | 59 | 168 | 0.0 | 0.0 | 0.00 | 0.16 | 0.17 | 91 | 1012.6 |
| 20260508102933 | 59 | 168 | 0.0 | 1.0 | 0.00 | 0.16 | 0.17 | 91 | 1012.6 |
| 20260508100734 | 59 | 168 | 0.0 | 0.0 | 0.04 | 0.16 | 0.17 | 91 | 1012.5 |
| 20260508095730 | 59 | 168 | 0.0 | 0.0 | 0.09 | 0.16 | 0.17 | 91 | 1012.5 |
| 20260508092426 | 60 | 168 | 0.0 | 0.0 | 0.00 | 0.09 | 0.10 | 91 | 1012.4 |
| 20260508091400 | 60 | 168 | 0.0 | 3.0 | 0.00 | 0.09 | 0.10 | 91 | 1012.4 |
| 20260508085228 | 59 | 168 | 0.0 | 0.0 | 0.00 | 0.09 | 0.10 | 90 | 1012.7 |
| 20260508084242 | 59 | 168 | 0.0 | 0.0 | 0.00 | 0.09 | 0.10 | 90 | 1012.7 |
| 20260508083213 | 59 | 168 | 0.0 | 0.0 | 0.00 | 0.09 | 0.10 | 90 | 1012.8 |
| 20260508081018 | 59 | 168 | 0.0 | 1.0 | 0.00 | 0.09 | 0.10 | 90 | 1012.9 |
| 20260508080038 | 59 | 168 | 0.0 | 0.0 | 0.00 | 0.09 | 0.10 | 89 | 1013.0 |
| 20260508075051 | 59 | 168 | 0.0 | 1.0 | 0.00 | 0.09 | 0.10 | 89 | 1013.0 |
| 20260508074054 | 59 | 168 | 0.0 | 0.0 | 0.00 | 0.09 | 0.10 | 89 | 1012.9 |
| 20260508073104 | 59 | 168 | 4.0 | 6.0 | 0.00 | 0.09 | 0.10 | 88 | 1012.9 |
| 20260508072041 | 59 | 148 | 0.0 | 5.0 | 0.00 | 0.09 | 0.10 | 88 | 1012.9 |
| 20260508071031 | 60 | 149 | 0.0 | 0.0 | 0.00 | 0.09 | 0.10 | 87 | 1013.7 |
| 20260508064929 | 60 | 275 | 0.0 | 0.0 | 0.06 | 0.09 | 0.10 | 86 | 1014.3 |
| 20260508063913 | 60 | 217 | 0.0 | 0.0 | 1.29 | 0.04 | 0.06 | 85 | 1014.3 |
| 20260508062902 | 60 | 178 | 0.0 | 1.0 | 0.33 | 0.02 | 0.02 | 85 | 1014.2 |
| 20260508060743 | 59 | 178 | 0.0 | 0.0 | 0.00 | 0.00 | 0.00 | 85 | 1014.1 |
| 20260508053535 | 58 | 178 | 1.0 | 3.0 | 0.00 | 0.00 | 0.00 | 85 | 1014.1 |
| 20260508052556 | 58 | 178 | 1.0 | 3.0 | 0.00 | 0.00 | 0.00 | 86 | 1014.3 |
| 20260508051541 | 58 | 163 | 0.0 | 3.0 | 0.00 | 0.00 | 0.00 | 85 | 1014.4 |
| 20260508045402 | 58 | 150 | 0.0 | 0.0 | 0.00 | 0.00 | 0.00 | 84 | 1014.1 |
| 20260508044407 | 58 | 150 | 0.0 | 0.0 | 0.00 | 0.00 | 0.00 | 83 | 1014.3 |
| 20260508043335 | 59 | 150 | 0.0 | 0.0 | 0.00 | 0.00 | 0.00 | 83 | 1014.3 |
| 20260508042320 | 59 | 151 | 0.0 | 0.0 | 0.00 | 0.00 | 0.00 | 83 | 1014.3 |
| 20260508041321 | 59 | 151 | 0.0 | 0.0 | 0.00 | 0.00 | 0.00 | 83 | 1014.3 |
| 20260508040254 | 59 | 151 | 0.0 | 0.0 | 0.00 | 0.00 | 0.00 | 82 | 1014.2 |
| 20260508034053 | 59 | 150 | 0.0 | 0.0 | 0.00 | 0.00 | 0.00 | 82 | 1014.0 |
| 20260508033059 | 59 | 150 | 0.0 | 0.0 | 0.00 | 0.00 | 0.00 | 82 | 1014.0 |
| 20260508032106 | 59 | 150 | 0.0 | 0.0 | 0.00 | 0.00 | 0.00 | 81 | 1013.9 |
| 20260508031127 | 59 | 150 | 0.0 | 0.0 | 0.00 | 0.00 | 0.00 | 80 | 1014.0 |
| 20260508030106 | 60 | 150 | 0.0 | 0.0 | 0.00 | 0.00 | 0.00 | 79 | 1013.8 |
| 20260508025102 | 61 | 150 | 0.0 | 0.0 | 0.00 | 0.00 | 0.00 | 77 | 1013.7 |